When you browse on this site, cookies collect data to enhance your experience and personalize the content and advertising you see.
Visit our Privacy Policy to learn more. By continuing to use the site, you agree to this use of cookies and data.
  • In Österreich
  • Länderverzeichnis
  • Für 7 Tage
  • Wassertemperatur
  • Wetterkarte
  • News
  • Widgets
  • user-avatar
    Anmelden

    Stündliche Wetter Rosas

    Heute, 26 Januar, Sonntag

    Zeit Temperatur Niederschläge Wind Luftdruck Luftfeuchtigkeit
    00:00 +16°C° 0.2 mm 0 m/S 618 mmHg 98%
    01:00 +16°C° 0.2 mm 0 m/S 618 mmHg 98%
    02:00 +16°C° 0.3 mm 0 m/S 618 mmHg 98%
    03:00 +16°C° 0.3 mm 0 m/S 617 mmHg 98%
    04:00 +16°C° 0.3 mm 0 m/S 617 mmHg 97%
    05:00 +16°C° 0.2 mm 0 m/S 617 mmHg 97%
    06:00 +16°C° 0.2 mm 0 m/S 618 mmHg 97%
    07:00 +16°C° 0.2 mm 0 m/S 618 mmHg 96%
    08:00 +17°C° 0.3 mm 0 m/S 619 mmHg 94%
    09:00 +18°C° 0.3 mm 0 m/S 619 mmHg 92%
    10:00 +18°C° 0.3 mm 0 m/S 620 mmHg 91%
    11:00 +21°C° 0.7 mm 1 m/S 620 mmHg 88%
    12:00 +22°C° 0.7 mm 1 m/S 619 mmHg 86%
    13:00 +23°C° 0.7 mm 1 m/S 619 mmHg 84%
    14:00 +23°C° 1.3 mm 1 m/S 618 mmHg 85%
    15:00 +22°C° 1.3 mm 1 m/S 618 mmHg 86%
    16:00 +22°C° 1.3 mm 1 m/S 617 mmHg 87%
    17:00 +19°C° 1.4 mm 0 m/S 617 mmHg 90%
    18:00 +18°C° 1.4 mm 0 m/S 617 mmHg 93%
    19:00 +17°C° 1.4 mm 0 m/S 617 mmHg 97%
    20:00 +17°C° 0.8 mm 0 m/S 618 mmHg 97%
    21:00 +16°C° 0.8 mm 0 m/S 618 mmHg 97%
    22:00 +16°C° 0.8 mm 0 m/S 618 mmHg 97%
    23:00 +16°C° 0.6 mm 0 m/S 618 mmHg 97%

    Morgen, 27 Januar, Montag

    Zeit Temperatur Niederschläge Wind Luftdruck Luftfeuchtigkeit
    00:00 +16°C° 0.6 mm 0 m/S 618 mmHg 98%
    01:00 +16°C° 0.6 mm 0 m/S 618 mmHg 98%
    02:00 +16°C° 0.6 mm 0 m/S 617 mmHg 98%
    03:00 +16°C° 0.6 mm 0 m/S 617 mmHg 99%
    04:00 +16°C° 0.6 mm 0 m/S 617 mmHg 99%
    05:00 +16°C° 0.4 mm 0 m/S 617 mmHg 99%
    06:00 +16°C° 0.4 mm 0 m/S 618 mmHg 99%
    07:00 +16°C° 0.4 mm 0 m/S 618 mmHg 98%
    08:00 +16°C° 0.4 mm 0 m/S 619 mmHg 97%
    09:00 +17°C° 0.4 mm 0 m/S 619 mmHg 97%
    10:00 +19°C° 0.4 mm 1 m/S 620 mmHg 96%
    11:00 +20°C° 0.5 mm 1 m/S 619 mmHg 93%
    12:00 +20°C° 0.5 mm 1 m/S 619 mmHg 91%
    13:00 +21°C° 0.5 mm 1 m/S 619 mmHg 88%
    14:00 +21°C° 0.6 mm 1 m/S 618 mmHg 88%
    15:00 +21°C° 0.6 mm 1 m/S 618 mmHg 89%
    16:00 +21°C° 0.6 mm 1 m/S 617 mmHg 89%
    17:00 +20°C° 0.7 mm 1 m/S 617 mmHg 91%
    18:00 +17°C° 0.7 mm 0 m/S 617 mmHg 94%
    19:00 +16°C° 0.7 mm 0 m/S 617 mmHg 97%
    20:00 +16°C° 0.2 mm 0 m/S 618 mmHg 97%
    21:00 +16°C° 0.2 mm 0 m/S 618 mmHg 97%
    22:00 +16°C° 0.2 mm 0 m/S 618 mmHg 97%
    23:00 +15°C° 0 mm 0 m/S 618 mmHg 97%

    übermorgen, 28 Januar, Dienstag

    Zeit Temperatur Niederschläge Wind Luftdruck Luftfeuchtigkeit
    00:00 +15°C° 0 mm 0 m/S 618 mmHg 97%
    01:00 +15°C° 0 mm 0 m/S 617 mmHg 97%
    02:00 +15°C° 0 mm 0 m/S 617 mmHg 97%
    03:00 +15°C° 0 mm 0 m/S 617 mmHg 97%
    04:00 +15°C° 0 mm 0 m/S 616 mmHg 97%
    05:00 +15°C° 0 mm 0 m/S 617 mmHg 96%
    06:00 +15°C° 0 mm 0 m/S 617 mmHg 96%
    07:00 +15°C° 0 mm 0 m/S 618 mmHg 95%
    08:00 +17°C° 0 mm 0 m/S 619 mmHg 88%
    09:00 +21°C° 0 mm 1 m/S 619 mmHg 81%
    10:00 +23°C° 0 mm 1 m/S 620 mmHg 74%
    11:00 +23°C° 0.2 mm 1 m/S 620 mmHg 72%
    12:00 +24°C° 0.2 mm 1 m/S 619 mmHg 70%
    13:00 +25°C° 0.2 mm 1 m/S 619 mmHg 68%
    14:00 +24°C° 0.7 mm 1 m/S 618 mmHg 73%
    15:00 +23°C° 0.7 mm 1 m/S 617 mmHg 77%
    16:00 +21°C° 0.7 mm 0 m/S 617 mmHg 82%
    17:00 +19°C° 0.7 mm 0 m/S 617 mmHg 87%
    18:00 +18°C° 0.7 mm 0 m/S 616 mmHg 92%
    19:00 +16°C° 0.7 mm 0 m/S 616 mmHg 96%
    20:00 +16°C° 0.2 mm 0 m/S 617 mmHg 96%
    21:00 +16°C° 0.2 mm 0 m/S 617 mmHg 97%
    22:00 +16°C° 0.2 mm 0 m/S 617 mmHg 97%
    23:00 +16°C° 0.2 mm 0 m/S 617 mmHg 97%

    29 Januar, Mittwoch

    Zeit Temperatur Niederschläge Wind Luftdruck Luftfeuchtigkeit
    00:00 +16°C° 0.2 mm 0 m/S 617 mmHg 97%
    01:00 +16°C° 0.2 mm 0 m/S 617 mmHg 97%
    02:00 +16°C° 0.2 mm 0 m/S 617 mmHg 97%
    03:00 +16°C° 0.2 mm 0 m/S 616 mmHg 97%
    04:00 +15°C° 0.2 mm 0 m/S 616 mmHg 97%
    05:00 +16°C° 0.1 mm 0 m/S 617 mmHg 97%
    06:00 +16°C° 0.1 mm 0 m/S 617 mmHg 96%
    07:00 +16°C° 0.1 mm 0 m/S 618 mmHg 96%
    08:00 +17°C° 0.1 mm 0 m/S 618 mmHg 91%
    09:00 +21°C° 0.1 mm 1 m/S 619 mmHg 86%
    10:00 +22°C° 0.1 mm 1 m/S 620 mmHg 80%
    11:00 +23°C° 0.6 mm 1 m/S 619 mmHg 79%
    12:00 +23°C° 0.6 mm 1 m/S 619 mmHg 78%
    13:00 +24°C° 0.6 mm 1 m/S 618 mmHg 77%
    14:00 +23°C° 0.8 mm 1 m/S 618 mmHg 80%
    15:00 +23°C° 0.8 mm 1 m/S 617 mmHg 83%
    16:00 +22°C° 0.8 mm 1 m/S 616 mmHg 86%
    17:00 +21°C° 0.7 mm 1 m/S 616 mmHg 90%
    18:00 +18°C° 0.7 mm 0 m/S 616 mmHg 93%
    19:00 +16°C° 0.7 mm 0 m/S 616 mmHg 96%
    20:00 +16°C° 0.2 mm 0 m/S 616 mmHg 96%
    21:00 +16°C° 0.2 mm 0 m/S 617 mmHg 96%
    22:00 +16°C° 0.2 mm 0 m/S 617 mmHg 96%
    23:00 +15°C° 0.1 mm 0 m/S 617 mmHg 96%

    30 Januar, Donnerstag

    Zeit Temperatur Niederschläge Wind Luftdruck Luftfeuchtigkeit
    00:00 +15°C° 0.1 mm 0 m/S 616 mmHg 96%
    01:00 +15°C° 0.1 mm 0 m/S 616 mmHg 95%
    02:00 +15°C° 0 mm 0 m/S 616 mmHg 95%
    03:00 +14°C° 0 mm 0 m/S 615 mmHg 95%
    04:00 +14°C° 0 mm 0 m/S 615 mmHg 95%
    05:00 +14°C° 0 mm 0 m/S 616 mmHg 94%
    06:00 +14°C° 0 mm 0 m/S 616 mmHg 94%
    07:00 +16°C° 0 mm 1 m/S 617 mmHg 93%
    08:00 +19°C° 0 mm 1 m/S 617 mmHg 85%
    09:00 +21°C° 0 mm 1 m/S 618 mmHg 77%
    10:00 +24°C° 0 mm 1 m/S 619 mmHg 69%
    11:00 +24°C° 0.5 mm 1 m/S 619 mmHg 71%
    12:00 +24°C° 0.5 mm 1 m/S 618 mmHg 73%
    13:00 +24°C° 0.5 mm 1 m/S 618 mmHg 75%
    14:00 +24°C° 1.8 mm 1 m/S 617 mmHg 78%
    15:00 +23°C° 1.8 mm 1 m/S 616 mmHg 81%
    16:00 +21°C° 1.8 mm 0 m/S 616 mmHg 85%
    17:00 +19°C° 0.6 mm 0 m/S 616 mmHg 88%
    18:00 +20°C° 0.6 mm 1 m/S 616 mmHg 92%
    19:00 +19°C° 0.6 mm 1 m/S 616 mmHg 95%
    20:00 +18°C° 0.1 mm 1 m/S 616 mmHg 95%
    21:00 +18°C° 0.1 mm 1 m/S 616 mmHg 95%
    22:00 +16°C° 0.1 mm 1 m/S 616 mmHg 95%
    23:00 +16°C° 0 mm 1 m/S 616 mmHg 94%

    31 Januar, Freitag

    Zeit Temperatur Niederschläge Wind Luftdruck Luftfeuchtigkeit
    00:00 +16°C° 0 mm 1 m/S 616 mmHg 94%
    01:00 +16°C° 0 mm 1 m/S 616 mmHg 94%
    02:00 +16°C° 0 mm 1 m/S 616 mmHg 94%
    03:00 +15°C° 0 mm 1 m/S 615 mmHg 94%
    04:00 +15°C° 0 mm 1 m/S 615 mmHg 94%
    05:00 +16°C° 0 mm 1 m/S 616 mmHg 93%
    06:00 +16°C° 0 mm 1 m/S 616 mmHg 93%
    07:00 +16°C° 0 mm 1 m/S 616 mmHg 93%
    08:00 +19°C° 0 mm 1 m/S 618 mmHg 84%
    09:00 +21°C° 0 mm 1 m/S 619 mmHg 76%
    10:00 +24°C° 0 mm 1 m/S 620 mmHg 67%
    11:00 +25°C° 0.2 mm 1 m/S 619 mmHg 65%
    12:00 +25°C° 0.2 mm 1 m/S 619 mmHg 63%
    13:00 +26°C° 0.2 mm 1 m/S 619 mmHg 60%
    14:00 +25°C° 0.9 mm 1 m/S 618 mmHg 66%
    15:00 +24°C° 0.9 mm 1 m/S 617 mmHg 72%
    16:00 +23°C° 0.9 mm 1 m/S 616 mmHg 78%
    17:00 +22°C° 0.7 mm 1 m/S 616 mmHg 84%
    18:00 +20°C° 0.7 mm 1 m/S 616 mmHg 90%
    19:00 +17°C° 0.7 mm 0 m/S 616 mmHg 96%
    20:00 +18°C° 0.2 mm 1 m/S 616 mmHg 95%
    21:00 +18°C° 0.2 mm 1 m/S 617 mmHg 95%
    22:00 +16°C° 0.2 mm 1 m/S 617 mmHg 95%
    23:00 +16°C° 0 mm 1 m/S 617 mmHg 94%
    Mehr zeigen